When you browse on this site, cookies collect data to enhance your experience and personalize the content and advertising you see.
Visit our Privacy Policy to learn more. By continuing to use the site, you agree to this use of cookies and data.
  • In Hungary
  • List of Countries
  • For 7 days
  • Water Temperature
  • Weather Map
  • News
  • Weather Widgets
  • user-avatar
    Login

    Hourly Weather Amendolara

    Today, 12 December, Thursday

    Time Temperature Precipitation Wind Pressure Humidity
    00:00 +6°C° 0 mm 2 mps 725 mmHg 82%
    01:00 +6°C° 0 mm 2 mps 724 mmHg 82%
    02:00 +6°C° 0 mm 2 mps 724 mmHg 82%
    03:00 +6°C° 0 mm 2 mps 724 mmHg 83%
    04:00 +6°C° 0 mm 2 mps 724 mmHg 84%
    05:00 +6°C° 0 mm 2 mps 724 mmHg 84%
    06:00 +7°C° 0 mm 1 mps 724 mmHg 84%
    07:00 +7°C° 0 mm 1 mps 724 mmHg 85%
    08:00 +7°C° 0 mm 2 mps 724 mmHg 80%
    09:00 +8°C° 0 mm 2 mps 724 mmHg 76%
    10:00 +10°C° 0 mm 2 mps 724 mmHg 71%
    11:00 +10°C° 0 mm 3 mps 724 mmHg 71%
    12:00 +10°C° 0 mm 3 mps 723 mmHg 70%
    13:00 +10°C° 0 mm 3 mps 723 mmHg 69%
    14:00 +10°C° 0.2 mm 3 mps 723 mmHg 73%
    15:00 +9°C° 0.2 mm 3 mps 723 mmHg 77%
    16:00 +9°C° 0.2 mm 3 mps 722 mmHg 81%
    17:00 +7°C° 0.2 mm 4 mps 722 mmHg 80%
    18:00 +7°C° 0.2 mm 4 mps 722 mmHg 80%
    19:00 +7°C° 0.2 mm 5 mps 722 mmHg 79%
    20:00 +6°C° 0.1 mm 4 mps 722 mmHg 80%
    21:00 +7°C° 0.1 mm 3 mps 722 mmHg 81%
    22:00 +7°C° 0.1 mm 3 mps 722 mmHg 82%
    23:00 +7°C° 0 mm 3 mps 721 mmHg 82%

    Tomorrow, 13 December, Friday

    Time Temperature Precipitation Wind Pressure Humidity
    00:00 +7°C° 0 mm 3 mps 721 mmHg 81%
    01:00 +7°C° 0 mm 3 mps 721 mmHg 80%
    02:00 +7°C° 0 mm 3 mps 721 mmHg 80%
    03:00 +7°C° 0 mm 3 mps 721 mmHg 81%
    04:00 +7°C° 0 mm 3 mps 721 mmHg 81%
    05:00 +7°C° 0.1 mm 3 mps 721 mmHg 82%
    06:00 +7°C° 0.1 mm 3 mps 721 mmHg 84%
    07:00 +7°C° 0.1 mm 3 mps 721 mmHg 85%
    08:00 +7°C° 0 mm 4 mps 721 mmHg 82%
    09:00 +8°C° 0 mm 4 mps 721 mmHg 78%
    10:00 +11°C° 0 mm 4 mps 721 mmHg 74%
    11:00 +11°C° 0.3 mm 4 mps 720 mmHg 77%
    12:00 +9°C° 0.3 mm 5 mps 719 mmHg 79%
    13:00 +9°C° 0.3 mm 5 mps 719 mmHg 82%
    14:00 +9°C° 0.6 mm 5 mps 718 mmHg 84%
    15:00 +9°C° 0.6 mm 6 mps 717 mmHg 86%
    16:00 +9°C° 0.6 mm 6 mps 716 mmHg 88%
    17:00 +9°C° 2.9 mm 6 mps 715 mmHg 90%
    18:00 +9°C° 2.9 mm 6 mps 714 mmHg 92%
    19:00 +9°C° 2.9 mm 6 mps 713 mmHg 94%
    20:00 +9°C° 3.4 mm 6 mps 712 mmHg 93%
    21:00 +9°C° 3.4 mm 6 mps 711 mmHg 91%
    22:00 +9°C° 3.4 mm 7 mps 710 mmHg 90%
    23:00 +9°C° 1.1 mm 6 mps 710 mmHg 87%

    Day after tomorrow, 14 December, Saturday

    Time Temperature Precipitation Wind Pressure Humidity
    00:00 +8°C° 1.1 mm 6 mps 710 mmHg 84%
    01:00 +7°C° 1.1 mm 6 mps 709 mmHg 80%
    02:00 +7°C° 0.1 mm 6 mps 709 mmHg 81%
    03:00 +5°C° 0.1 mm 6 mps 710 mmHg 81%
    04:00 +5°C° 0.1 mm 6 mps 710 mmHg 81%
    05:00 +6°C° 0.2 mm 5 mps 711 mmHg 82%
    06:00 +6°C° 0.2 mm 4 mps 712 mmHg 82%
    07:00 +6°C° 0.2 mm 4 mps 713 mmHg 82%
    08:00 +5°C° 0 mm 6 mps 714 mmHg 78%
    09:00 +6°C° 0 mm 7 mps 716 mmHg 73%
    10:00 +7°C° 0 mm 9 mps 717 mmHg 68%
    11:00 +8°C° 0 mm 9 mps 718 mmHg 67%
    12:00 +8°C° 0 mm 9 mps 719 mmHg 67%
    13:00 +8°C° 0 mm 10 mps 719 mmHg 66%
    14:00 +8°C° 0 mm 9 mps 720 mmHg 68%
    15:00 +7°C° 0 mm 8 mps 721 mmHg 70%
    16:00 +7°C° 0 mm 8 mps 723 mmHg 71%
    17:00 +6°C° 0 mm 7 mps 724 mmHg 71%
    18:00 +7°C° 0 mm 6 mps 725 mmHg 70%
    19:00 +6°C° 0 mm 5 mps 726 mmHg 70%
    20:00 +6°C° 0 mm 5 mps 727 mmHg 65%
    21:00 +6°C° 0 mm 5 mps 727 mmHg 59%
    22:00 +6°C° 0 mm 4 mps 728 mmHg 54%
    23:00 +6°C° 0 mm 4 mps 729 mmHg 50%

    15 December, Sunday

    Time Temperature Precipitation Wind Pressure Humidity
    00:00 +6°C° 0 mm 4 mps 729 mmHg 46%
    01:00 +6°C° 0 mm 4 mps 729 mmHg 42%
    02:00 +8°C° 0 mm 3 mps 729 mmHg 40%
    03:00 +8°C° 0 mm 3 mps 730 mmHg 38%
    04:00 +8°C° 0 mm 2 mps 730 mmHg 36%
    05:00 +8°C° 0 mm 2 mps 730 mmHg 36%
    06:00 +8°C° 0 mm 2 mps 731 mmHg 36%
    07:00 +8°C° 0 mm 2 mps 731 mmHg 35%
    08:00 +10°C° 0 mm 2 mps 732 mmHg 38%
    09:00 +12°C° 0 mm 2 mps 732 mmHg 40%
    10:00 +14°C° 0 mm 2 mps 733 mmHg 42%
    11:00 +15°C° 0 mm 2 mps 733 mmHg 43%
    12:00 +16°C° 0 mm 2 mps 733 mmHg 43%
    13:00 +17°C° 0 mm 2 mps 733 mmHg 44%
    14:00 +15°C° 0 mm 2 mps 733 mmHg 50%
    15:00 +14°C° 0 mm 2 mps 733 mmHg 56%
    16:00 +13°C° 0 mm 2 mps 733 mmHg 62%
    17:00 +12°C° 0 mm 2 mps 733 mmHg 60%
    18:00 +10°C° 0 mm 2 mps 734 mmHg 59%
    19:00 +10°C° 0 mm 2 mps 734 mmHg 58%
    20:00 +10°C° 0 mm 2 mps 734 mmHg 58%
    21:00 +9°C° 0 mm 2 mps 734 mmHg 58%
    22:00 +9°C° 0 mm 2 mps 735 mmHg 58%
    23:00 +9°C° 0 mm 2 mps 735 mmHg 58%

    16 December, Monday

    Time Temperature Precipitation Wind Pressure Humidity
    00:00 +9°C° 0 mm 2 mps 735 mmHg 59%
    01:00 +9°C° 0 mm 2 mps 735 mmHg 59%
    02:00 +9°C° 0 mm 2 mps 735 mmHg 61%
    03:00 +8°C° 0 mm 2 mps 735 mmHg 62%
    04:00 +9°C° 0 mm 1 mps 735 mmHg 64%
    05:00 +9°C° 0 mm 1 mps 735 mmHg 66%
    06:00 +9°C° 0 mm 1 mps 735 mmHg 67%
    07:00 +9°C° 0 mm 1 mps 735 mmHg 69%
    08:00 +11°C° 0 mm 1 mps 735 mmHg 67%
    09:00 +12°C° 0 mm 1 mps 736 mmHg 65%
    10:00 +14°C° 0 mm 1 mps 736 mmHg 62%
    11:00 +15°C° 0 mm 1 mps 736 mmHg 61%
    12:00 +15°C° 0 mm 1 mps 735 mmHg 60%
    13:00 +16°C° 0 mm 1 mps 735 mmHg 60%
    14:00 +15°C° 0 mm 1 mps 735 mmHg 64%
    15:00 +14°C° 0 mm 1 mps 735 mmHg 69%
    16:00 +13°C° 0 mm 1 mps 735 mmHg 74%
    17:00 +12°C° 0 mm 1 mps 735 mmHg 73%
    18:00 +12°C° 0 mm 1 mps 735 mmHg 72%
    19:00 +11°C° 0 mm 1 mps 735 mmHg 71%
    20:00 +11°C° 0 mm 1 mps 735 mmHg 69%
    21:00 +11°C° 0 mm 1 mps 735 mmHg 68%
    22:00 +11°C° 0 mm 1 mps 735 mmHg 67%
    23:00 +11°C° 0 mm 1 mps 735 mmHg 66%

    17 December, Tuesday

    Time Temperature Precipitation Wind Pressure Humidity
    00:00 +11°C° 0 mm 1 mps 734 mmHg 65%
    01:00 +11°C° 0 mm 1 mps 734 mmHg 64%
    02:00 +10°C° 0 mm 1 mps 734 mmHg 64%
    03:00 +10°C° 0 mm 1 mps 734 mmHg 64%
    04:00 +10°C° 0 mm 1 mps 734 mmHg 64%
    05:00 +10°C° 0 mm 1 mps 734 mmHg 64%
    06:00 +10°C° 0 mm 1 mps 734 mmHg 63%
    07:00 +10°C° 0 mm 1 mps 734 mmHg 63%
    08:00 +11°C° 0 mm 1 mps 734 mmHg 62%
    09:00 +13°C° 0 mm 1 mps 735 mmHg 60%
    10:00 +14°C° 0 mm 1 mps 735 mmHg 59%
    11:00 +15°C° 0 mm 1 mps 735 mmHg 58%
    12:00 +16°C° 0 mm 1 mps 735 mmHg 58%
    13:00 +16°C° 0 mm 1 mps 734 mmHg 58%
    14:00 +15°C° 0 mm 1 mps 734 mmHg 64%
    15:00 +14°C° 0 mm 2 mps 734 mmHg 70%
    16:00 +13°C° 0 mm 2 mps 734 mmHg 76%
    17:00 +13°C° 0 mm 2 mps 734 mmHg 77%
    18:00 +12°C° 0 mm 2 mps 735 mmHg 77%
    19:00 +12°C° 0 mm 2 mps 735 mmHg 77%
    20:00 +12°C° 0 mm 2 mps 735 mmHg 75%
    21:00 +10°C° 0 mm 2 mps 735 mmHg 73%
    22:00 +10°C° 0 mm 2 mps 735 mmHg 72%
    23:00 +11°C° 0 mm 1 mps 735 mmHg 70%
    Show more